DW8004 Weather Reports


time (UTC)temp
C
wind
direction
speed
KPH
gust
KPH
rain 1hr
cm
rain 24hr
cm
rain mn
cm
humidity
%
barometer
mb
20260902184551 16 94 0.0 0.0 0.00 0.03 0.00 89 1020.0
20260902183036 16 82 0.0 0.0 0.00 0.03 0.00 89 1020.4
20260902181530 16 149 0.0 0.0 0.00 0.03 0.00 89 1020.4
20260902180057 17 55 0.0 0.0 0.00 0.03 0.00 88 1020.0
20260902174544 17 130 0.0 0.0 0.00 0.08 0.00 88 1020.3
20260902173039 17 82 0.0 0.0 0.00 0.08 0.00 88 1020.3
20260902171552 17 139 0.0 0.0 0.00 0.08 0.00 88 1020.4
20260902170041 16 86 0.0 0.0 0.00 0.08 0.00 87 1020.4
20260902164547 16 109 0.0 0.0 0.00 0.08 0.00 85 1020.7
20260902163043 16 244 0.0 0.0 0.00 0.08 0.00 85 1020.7
20260902161510 16 78 0.0 0.0 0.00 0.08 0.00 85 1020.7
20260902160116 16 232 0.0 0.0 0.00 0.08 0.00 87 1020.9
20260902154543 16 143 0.0 0.0 0.00 0.28 0.00 87 1021.0
20260902153044 16 117 0.0 0.0 0.00 0.28 0.00 89 1021.2
20260902151505 15 41 0.0 0.0 0.00 0.28 0.00 90 1021.3
20260902150053 15 83 0.0 0.0 0.00 0.28 0.00 89 1021.6
20260902144550 15 74 0.0 0.0 0.00 0.28 0.00 91 1021.6
20260902143027 15 208 0.0 0.0 0.00 0.28 0.00 91 1021.6
20260902141503 15 128 0.0 0.0 0.00 0.28 0.00 92 1021.3
20260902140047 15 134 0.0 0.0 0.00 0.28 0.00 93 1021.2
20260902134539 15 121 0.0 0.0 0.00 0.28 0.00 92 1021.3
20260902133005 15 121 0.0 0.0 0.00 0.28 0.00 92 1021.0
20260902131543 15 121 0.0 0.0 0.00 0.28 0.00 92 1020.7
20260902130045 15 85 0.0 0.0 0.00 0.28 0.00 92 1020.8
20260902124539 14 83 0.0 0.0 0.00 0.28 0.00 93 1020.8
20260902123022 14 83 0.0 0.0 0.00 0.28 0.00 95 1020.7
20260902121527 14 83 0.0 0.0 0.00 0.28 0.00 96 1020.7
20260902120049 14 88 0.0 0.0 0.00 0.28 0.00 97 1020.6
20260902114525 14 88 0.0 0.0 0.00 0.51 0.00 97 1020.6
20260902113008 13 88 0.0 0.0 0.00 0.51 0.00 97 1020.8
20260902111556 13 88 0.0 0.0 0.00 0.51 0.00 97 1021.0
20260902110052 13 88 0.0 0.0 0.00 0.51 0.00 97 1020.9
20260902104607 13 88 0.0 0.0 0.00 0.69 0.00 97 1020.6
20260902103010 13 88 0.0 0.0 0.00 0.69 0.00 97 1020.5
20260902101503 13 88 0.0 0.0 0.00 0.69 0.00 97 1020.5
20260902100133 13 88 0.0 0.0 0.00 0.69 0.00 97 1020.2
20260902094503 13 88 0.0 0.0 0.00 0.69 0.00 97 1020.0
20260902093100 13 88 0.0 0.0 0.00 0.69 0.00 97 1019.9
20260902091539 13 88 0.0 0.0 0.00 0.69 0.00 97 1019.7
20260902090005 13 88 0.0 0.0 0.00 0.69 0.00 97 1019.7
20260902084604 13 88 0.0 0.0 0.00 0.69 0.00 97 1019.3
20260902083039 13 88 0.0 0.0 0.00 0.69 0.00 97 1019.4
20260902081509 13 88 0.0 0.0 0.00 0.69 0.00 97 1019.3
20260902080027 13 88 0.0 0.0 0.00 0.69 0.00 97 1019.3
20260902074525 13 88 0.0 0.0 0.00 0.69 0.00 97 1019.6
20260902073013 13 88 0.0 0.0 0.00 0.69 0.00 97 1019.7
20260902071630 13 88 0.0 0.0 0.00 0.69 0.00 97 1019.5
20260902070105 13 88 0.0 0.0 0.00 0.69 0.00 97 1019.3
20260902064539 14 88 0.0 0.0 0.00 0.69 0.00 97 1019.4
20260902063007 14 88 0.0 0.0 0.00 0.69 0.00 97 1019.5
20260902061506 14 88 0.0 0.0 0.00 0.69 0.00 97 1019.3
20260902060001 14 88 0.0 0.0 0.00 0.69 0.00 97 1019.4
20260902054603 14 88 0.0 0.0 0.00 0.69 0.00 97 1019.2
20260902053005 15 88 0.0 0.0 0.00 0.69 0.00 98 1019.0
20260902051501 15 88 0.0 0.0 0.00 0.69 0.00 97 1019.0
20260902050059 15 88 0.0 0.0 0.00 0.69 0.00 98 1019.0
20260902044557 15 88 0.0 0.0 0.00 0.69 0.00 98 1018.9
20260902043047 15 88 0.0 0.0 0.00 0.69 0.00 98 1018.7
20260902041541 15 88 0.0 0.0 0.00 0.69 0.00 98 1018.4
20260902040039 15 88 0.0 0.0 0.00 0.69 0.00 98 1018.1
20260902034526 15 88 0.0 0.0 0.00 0.69 0.69 98 1017.8
20260902033006 15 88 0.0 0.0 0.00 0.69 0.69 98 1017.8
20260902031529 15 88 0.0 0.0 0.00 0.69 0.69 98 1017.9
20260902030104 15 88 0.0 0.0 0.00 0.69 0.69 98 1018.0
20260902024537 15 88 0.0 0.0 0.00 0.69 0.69 97 1017.9
20260902023029 15 88 0.0 0.0 0.00 0.69 0.69 97 1018.0
20260902021502 15 92 0.0 0.0 0.00 0.69 0.69 97 1018.2
20260902020145 15 92 0.0 0.0 0.00 0.69 0.69 97 1017.9
20260902014559 15 92 0.0 0.0 0.00 0.69 0.69 97 1017.9
20260902013040 15 92 0.0 0.0 0.00 0.69 0.69 97 1017.7
20260902011556 15 92 0.0 0.0 0.00 0.69 0.69 97 1017.6
20260902010058 15 92 0.0 0.0 0.00 0.69 0.69 97 1017.6
20260902004604 15 92 0.0 0.0 0.00 0.69 0.69 97 1017.5
20260902003054 15 92 0.0 0.0 0.00 0.69 0.69 97 1017.1
20260902001558 15 92 0.0 0.0 0.00 0.69 0.69 97 1017.0
20260902000046 16 94 0.0 0.0 0.00 0.69 0.69 97 1016.8
20260901234554 16 90 0.0 0.0 0.00 0.69 0.69 97 1016.6
20260901233034 16 90 0.0 0.0 0.00 0.69 0.69 97 1016.5
20260901231533 16 97 0.0 0.0 0.00 0.69 0.69 97 1016.6
20260901230047 16 97 0.0 0.0 0.00 0.69 0.69 97 1016.7
20260901224557 16 97 0.0 0.0 0.00 0.69 0.69 97 1016.5
20260901223046 16 136 0.0 0.0 0.00 0.69 0.69 97 1016.7
20260901221620 16 49 0.0 0.0 0.00 0.69 0.69 97 1016.5
20260901220052 16 49 0.0 0.0 0.00 0.69 0.69 97 1016.3
20260901214552 16 39 0.0 0.0 0.00 0.69 0.69 96 1016.2
20260901213044 17 76 0.0 0.0 0.00 0.69 0.69 97 1015.9
20260901211546 17 97 0.0 0.0 0.00 0.69 0.69 97 1015.8
20260901210025 17 97 0.0 0.0 0.00 0.69 0.69 96 1015.8
20260901204505 17 136 0.0 0.0 0.00 0.69 0.69 96 1015.8
20260901203106 17 136 0.0 0.0 0.00 0.69 0.69 96 1015.6
20260901201551 17 136 0.0 0.0 0.00 0.69 0.69 96 1015.7
20260901200103 17 136 0.0 0.0 0.00 0.69 0.69 96 1015.5
20260901194544 17 142 0.0 0.0 0.00 0.69 0.69 96 1015.5
20260901193104 17 187 0.0 0.0 0.00 0.69 0.69 97 1015.5
20260901191545 17 234 0.0 0.0 0.00 0.69 0.69 97 1015.4
20260901190041 16 236 0.0 0.0 0.03 0.69 0.69 97 1015.6